TimeCDT,TemperatureF,Dew PointF,Humidity,Sea Level PressureIn,VisibilityMPH,Wind Direction,Wind SpeedMPH,Gust SpeedMPH,PrecipitationIn,Events,Conditions,WindDirDegrees,DateUTC
12:15 AM,44.8,32.0,61,30.09,10.0,East,6.9,-,N/A,,Overcast,80,2012-11-03 05:15:00
12:35 AM,44.8,32.0,61,30.09,10.0,East,6.9,-,N/A,,Overcast,80,2012-11-03 05:35:00
12:55 AM,44.6,32.0,61,30.09,10.0,East,8.1,-,N/A,,Overcast,80,2012-11-03 05:55:00
1:15 AM,43.7,31.8,63,30.09,10.0,NE,4.6,-,N/A,,Overcast,40,2012-11-03 06:15:00
1:35 AM,42.6,32.0,66,30.09,10.0,NE,4.6,-,N/A,,Overcast,40,2012-11-03 06:35:00
2:15 AM,41.0,32.0,70,30.09,10.0,ENE,4.6,-,N/A,,Scattered Clouds,60,2012-11-03 07:15:00
2:35 AM,41.0,31.8,70,30.09,10.0,NE,4.6,-,N/A,,Scattered Clouds,40,2012-11-03 07:35:00
2:55 AM,40.5,32.0,72,30.10,10.0,North,5.8,-,N/A,,Mostly Cloudy,10,2012-11-03 07:55:00
3:15 AM,40.8,32.0,71,30.09,10.0,NE,4.6,-,N/A,,Overcast,50,2012-11-03 08:15:00
3:35 AM,41.9,32.4,69,30.09,10.0,NE,5.8,-,N/A,,Overcast,40,2012-11-03 08:35:00
3:55 AM,41.9,32.4,69,30.09,10.0,NNE,4.6,-,N/A,,Overcast,30,2012-11-03 08:55:00
4:15 AM,40.8,32.5,72,30.10,10.0,North,5.8,-,N/A,,Mostly Cloudy,360,2012-11-03 09:15:00
4:35 AM,39.2,32.2,76,30.10,10.0,NNE,5.8,-,N/A,,Scattered Clouds,20,2012-11-03 09:35:00
4:55 AM,39.0,32.0,76,30.11,10.0,NNE,5.8,-,N/A,,Clear,20,2012-11-03 09:55:00
5:15 AM,38.5,32.0,78,30.11,10.0,NNE,5.8,-,N/A,,Clear,20,2012-11-03 10:15:00
5:35 AM,37.9,32.0,79,30.12,10.0,NNE,4.6,-,N/A,,Clear,20,2012-11-03 10:35:00
5:55 AM,37.4,31.8,80,30.13,10.0,North,3.5,-,N/A,,Clear,10,2012-11-03 10:55:00
6:15 AM,34.7,30.2,84,30.14,10.0,North,4.6,-,N/A,,Scattered Clouds,360,2012-11-03 11:15:00
6:35 AM,37.2,32.0,81,30.14,10.0,North,4.6,-,N/A,,Overcast,360,2012-11-03 11:35:00
6:55 AM,38.1,31.6,77,30.14,10.0,NNE,5.8,-,N/A,,Overcast,20,2012-11-03 11:55:00
7:15 AM,38.3,31.8,77,30.14,10.0,NNE,3.5,-,N/A,,Overcast,20,2012-11-03 12:15:00
7:35 AM,38.7,32.0,77,30.15,10.0,North,3.5,-,N/A,,Overcast,360,2012-11-03 12:35:00
7:55 AM,38.7,32.0,77,30.16,10.0,North,4.6,-,N/A,,Overcast,360,2012-11-03 12:55:00
8:15 AM,38.5,32.0,78,30.16,10.0,North,3.5,-,N/A,,Overcast,360,2012-11-03 13:15:00
8:35 AM,38.8,32.0,76,30.16,10.0,North,3.5,-,N/A,,Overcast,10,2012-11-03 13:35:00
8:55 AM,40.1,32.0,73,30.17,10.0,NNE,3.5,-,N/A,,Overcast,30,2012-11-03 13:55:00
9:15 AM,40.3,32.0,72,30.17,7.0,Calm,Calm,-,N/A,,Overcast,0,2012-11-03 14:15:00
9:55 AM,42.8,31.6,65,30.18,10.0,ENE,3.5,-,N/A,,Overcast,60,2012-11-03 14:55:00
10:15 AM,43.7,31.1,61,30.19,10.0,NNE,3.5,-,N/A,,Scattered Clouds,30,2012-11-03 15:15:00
10:35 AM,45.7,31.5,58,30.19,10.0,Calm,Calm,-,N/A,,Scattered Clouds,0,2012-11-03 15:35:00
10:55 AM,46.4,30.6,54,30.19,10.0,Calm,Calm,-,N/A,,Scattered Clouds,0,2012-11-03 15:55:00
11:15 AM,47.5,30.2,51,30.19,10.0,Calm,Calm,-,N/A,,Clear,0,2012-11-03 16:15:00
11:35 AM,48.7,29.8,48,30.19,10.0,Calm,Calm,-,N/A,,Clear,0,2012-11-03 16:35:00
11:55 AM,49.1,29.1,46,30.20,10.0,Calm,Calm,-,N/A,,Clear,0,2012-11-03 16:55:00
12:15 PM,50.9,28.2,42,30.20,10.0,NNE,3.5,-,N/A,,Clear,20,2012-11-03 17:15:00
12:35 PM,51.3,27.9,40,30.19,10.0,NNW,4.6,-,N/A,,Scattered Clouds,340,2012-11-03 17:35:00
12:55 PM,51.6,27.3,39,30.19,10.0,Calm,Calm,-,N/A,,Mostly Cloudy,0,2012-11-03 17:55:00
1:15 PM,52.0,27.0,38,30.18,10.0,Calm,Calm,-,N/A,,Mostly Cloudy,0,2012-11-03 18:15:00
1:35 PM,53.1,27.9,38,30.17,10.0,East,5.8,-,N/A,,Scattered Clouds,80,2012-11-03 18:35:00
1:55 PM,53.1,26.8,36,30.17,10.0,NNE,4.6,-,N/A,,Mostly Cloudy,20,2012-11-03 18:55:00
2:15 PM,53.2,26.4,35,30.17,10.0,NW,4.6,-,N/A,,Scattered Clouds,320,2012-11-03 19:15:00
2:35 PM,54.1,27.0,35,30.17,10.0,Calm,Calm,-,N/A,,Mostly Cloudy,0,2012-11-03 19:35:00
2:55 PM,54.7,26.8,34,30.16,10.0,North,3.5,-,N/A,,Overcast,360,2012-11-03 19:55:00
3:15 PM,54.7,26.4,34,30.16,10.0,Calm,Calm,-,N/A,,Scattered Clouds,0,2012-11-03 20:15:00
3:35 PM,55.4,25.3,31,30.16,10.0,North,5.8,-,N/A,,Mostly Cloudy,350,2012-11-03 20:35:00
3:55 PM,55.6,26.2,32,30.16,10.0,North,6.9,-,N/A,,Scattered Clouds,360,2012-11-03 20:55:00
4:15 PM,55.6,25.2,31,30.16,10.0,NNW,9.2,-,N/A,,Clear,330,2012-11-03 21:15:00
4:35 PM,55.2,26.1,33,30.16,10.0,NW,4.6,-,N/A,,Clear,320,2012-11-03 21:35:00
4:55 PM,54.5,26.4,34,30.16,10.0,North,4.6,-,N/A,,Clear,360,2012-11-03 21:55:00
5:15 PM,54.1,27.0,35,30.16,10.0,NNW,4.6,-,N/A,,Clear,330,2012-11-03 22:15:00
5:35 PM,53.2,27.5,37,30.17,10.0,NNW,3.5,-,N/A,,Clear,330,2012-11-03 22:35:00
5:55 PM,52.0,28.6,41,30.16,10.0,Calm,Calm,-,N/A,,Clear,0,2012-11-03 22:55:00
6:15 PM,49.5,29.5,46,30.17,7.0,North,4.6,-,N/A,,Clear,360,2012-11-03 23:15:00
6:35 PM,47.5,28.4,48,30.17,10.0,North,5.8,-,N/A,,Scattered Clouds,350,2012-11-03 23:35:00
6:55 PM,47.7,28.8,48,30.18,10.0,North,3.5,-,N/A,,Mostly Cloudy,360,2012-11-03 23:55:00
7:15 PM,48.7,27.7,44,30.18,10.0,Calm,Calm,-,N/A,,Scattered Clouds,0,2012-11-04 00:15:00
7:35 PM,48.2,27.5,45,30.18,10.0,Calm,Calm,-,N/A,,Clear,0,2012-11-04 00:35:00
7:55 PM,47.7,28.0,47,30.19,7.0,NE,3.5,-,N/A,,Clear,50,2012-11-04 00:55:00
8:15 PM,44.4,28.4,53,30.18,10.0,Calm,Calm,-,N/A,,Scattered Clouds,0,2012-11-04 01:15:00
8:35 PM,45.7,28.8,52,30.19,7.0,Calm,Calm,-,N/A,,Clear,0,2012-11-04 01:35:00
8:55 PM,43.5,30.2,59,30.19,10.0,Calm,Calm,-,N/A,,Mostly Cloudy,0,2012-11-04 01:55:00
9:15 PM,43.7,30.0,59,30.19,10.0,Calm,Calm,-,N/A,,Overcast,0,2012-11-04 02:15:00
9:35 PM,42.3,32.0,67,30.20,10.0,Calm,Calm,-,N/A,,Overcast,0,2012-11-04 02:35:00
9:55 PM,42.8,31.8,65,30.20,7.0,Calm,Calm,-,N/A,,Mostly Cloudy,0,2012-11-04 02:55:00
10:15 PM,41.9,32.0,68,30.20,10.0,Calm,Calm,-,N/A,,Mostly Cloudy,0,2012-11-04 03:15:00
10:35 PM,42.6,31.1,64,30.20,10.0,Calm,Calm,-,N/A,,Scattered Clouds,0,2012-11-04 03:35:00
10:55 PM,40.8,30.6,67,30.19,10.0,Calm,Calm,-,N/A,,Clear,0,2012-11-04 03:55:00
11:15 PM,41.9,31.1,66,30.19,10.0,Calm,Calm,-,N/A,,Scattered Clouds,0,2012-11-04 04:15:00
11:35 PM,39.2,31.1,73,30.18,10.0,Calm,Calm,-,N/A,,Scattered Clouds,0,2012-11-04 04:35:00
11:55 PM,39.4,31.6,74,30.18,10.0,Calm,Calm,-,N/A,,Scattered Clouds,0,2012-11-04 04:55:00